Location: Unspecified
(0.0000°N, 0.0000°E)
Time: 07:39:20
(UTC+00:00)

Courier 1B - Pass Details

Date: 01 October 2023
Orbit: 962 x 1208 km, 28.3° (Epoch: 06 December)

Event Time Altitude Azimuth Distance (km) Brightness Sun altitude
Rises 21:37:11 0° 266° (W) 3,959 11.2 -56.7°
Enters shadow 21:39:37 - 257° (WSW) 3,285 10.7 -57.3°
Reaches altitude 10° 21:40:58 10° 249° (WSW) 2,953 - -57.7°
Maximum altitude 21:45:50 19° 206° (SSW) 2,288 - -58.9°
Drops below altitude 10° 21:50:33 10° 163° (SSE) 2,829 - -60.1°
Sets 21:54:05 0° 145° (SE) 3,738 - -60.9°
